This is the latest recevied weather packets stored in our database for station/object dl1wer-13. If no packets are shown the sender has not sent any weather packets the latest 10 day(s).
| Time | Temp. | Humidity | Pressure | Rain* | Wind** | Luminosity | Snow |
|---|---|---|---|---|---|---|---|
| 1778079023 | 17.78° C | 60% | 1031.5 hPa | 0 mm | - | - | - |
| 1778078423 | 17.78° C | 60% | 1031.5 hPa | 0 mm | - | - | - |
| 1778077824 | 16.67° C | 69% | 1031.5 hPa | 0 mm | - | - | - |
| 1778077223 | 16.11° C | 71% | 1031.6 hPa | 0 mm | - | - | - |
| 1778076623 | 15.56° C | 70% | 1031.5 hPa | 0 mm | - | - | - |
| 1778076023 | 16.67° C | 70% | 1032.3 hPa | 0 mm | - | - | - |
| 1778075423 | 16.67° C | 66% | 1032.1 hPa | 0 mm | - | - | - |
| 1778074823 | 17.22° C | 64% | 1032.1 hPa | 0 mm | - | - | - |
| 1778074223 | 17.22° C | 60% | 1031.9 hPa | 0 mm | - | - | - |
| 1778073623 | 17.78° C | 53% | 1032.3 hPa | 0 mm | - | - | - |
| 1778073023 | 17.78° C | 52% | 1032 hPa | 0 mm | - | - | - |
| 1778072423 | 18.33° C | 52% | 1031.8 hPa | 0 mm | - | - | - |
| 1778071823 | 18.33° C | 51% | 1031.7 hPa | 0 mm | - | - | - |
| 1778071222 | 18.33° C | 51% | 1031.7 hPa | 0 mm | - | - | - |
| 1778070624 | 17.78° C | 51% | 1031.5 hPa | 0 mm | - | - | - |
| 1778070023 | 17.78° C | 51% | 1031.6 hPa | 0 mm | - | - | - |
| 1778069423 | 17.78° C | 50% | 1031.4 hPa | 0 mm | - | - | - |
| 1778068824 | 17.78° C | 50% | 1031.9 hPa | 0 mm | - | - | - |
| 1778068223 | 18.33° C | 47% | 1031.8 hPa | 0 mm | - | - | - |
| 1778067623 | 17.78° C | 47% | 1031.8 hPa | 0 mm | - | - | - |
| 1778067023 | 18.33° C | 51% | 1031.9 hPa | 0 mm | - | - | - |
| 1778066423 | 18.33° C | 52% | 1032 hPa | 0 mm | - | - | - |
| 1778065823 | 17.78° C | 51% | 1032.1 hPa | 0 mm | - | - | - |
| 1778065223 | 17.78° C | 54% | 1032.2 hPa | 0 mm | - | - | - |
| 1778064622 | 17.78° C | 55% | 1032 hPa | 0 mm | - | - | - |
* Rain latest hour (hover to see other rain measurements)
** Current wind speed in m/s (hover to see current wind gust speed)